Погода в Жанауштогане

Погода в Жанауштогане : погода сейчас, прогноз погоды и архив. Всё, что Вы хотите узнать о погоде в Жанауштогане!

Хотите узнать прогноз погоды в Жанауштогане? Тогда Вам сюда: Погода в Жанауштогане

Поиск расширенной информации на нашем сайте:

Другие новости

Новости СМИ2

Главная страница сайта

Новости сайта

03.07.2017

Напоминаем, что на нашем специализированном сайте Метеоцентр.Азия вы можете получить высокодетализированные автоматические прогнозы погоды по пунктам России, СНГ и мира в авиационном формате (включающие направление и скорость ветра, видимость, явления погоды, количество и форму облачности, нижнюю и верхнюю границу облачности).

Рекомендуем: Подробное описание Крайслер замена катализатора на пламегаситель тут.

Погода в Жанауштогане - сегодня

Время (UTC), дата Ветер
(°,м/с) 
Видим.   Явления Облачность Т
(°С)
Тd
(°С)
f(%) Тe
(°С)
Pmin
(гПа)
dP
(гПа)
Po
(мм)
O2
(г/м3)
Тmin Tmax R s Состояние
почвы
06 10.12.17 180 (Ю) 20000 м    10/0 средняя 
[As op]
-2.8 -5.9 79 -2  1025.9  -0.2  770  314  -9.3         
09 10.12.17 180 (Ю) 20000 м    10/0 средняя 
[As op]
-0.4 -4.9 72 1026.1  0.2  771  312           
12 10.12.17 тихо ()   20000 м    9/0 средняя 
[Ac trans]
+0.6 -5.5 64 +1  1025.1  -1  770  310           
15 10.12.17 110 (В) 20000 м    8/0 средняя 
[Ac trans]
+0.2 -2.8 80 +1  1025  -0.1  770  310    +1.3       
18 10.12.17 110 (В) 20000 м    10/0 средняя 
[Ac As]
-1.1 -4 81 -2  1025  770  312    +1.3       
21 10.12.17 110 (В) 20000 м    8/0 средняя 
[Ac trans]
-3.9 -6.4 83 -3  1024.9  -0.1  770  315           
00 11.12.17 140 (ЮВ) 20000 м    4/0 средняя 
[Ac trans]
-5.9 -8.9 79 -7  1024.9  770  318           
03 11.12.17 140 (ЮВ) 20000 м    10/0 средняя 
[Ac As]
-4.2 -6.8 82 -5  1024.5  -0.4  769  316  -6.1      равномерный
сухой снег
100% 
06 11.12.17 140 (ЮВ) 20000 м    9/9 600 м 
[Sc]
-1.4 -4.6 79 -2  1024.9  0.4  770  312  -6.1         
09 11.12.17 140 (ЮВ) 20000 м    9/9 600 м 
[Sc]
-0.8 -4.7 75 1025.7  0.8  770  312           
12 11.12.17 140 (ЮВ) 20000 м    10/10 1000 м 
[Sc]
+0.2 -4.9 69 -1  1025.9  0.2  770  311           
15 11.12.17 тихо ()   20000 м    10/8 600 м средняя 
[Sc|Ac und]
+0 -4.1 74 1026.2  0.3  771  311    +1       
18 11.12.17 тихо ()   20000 м    10/8 600 м средняя 
[Sc|Ac und]
+0.2 -3.1 78 1026.5  0.3  771  311    +1       
21 11.12.17 тихо ()   4000 м  слаб. дождь  10/10 600 м 
[Ns]
+0.4 -1.9 85 1026.9  0.4  771  311           
00 12.12.17 тихо ()   20000 м  {дождь}  10/10 600 м 
[Ns]
+0.2 -1.5 88 1027.3  0.4  771  311           
03 12.12.17 тихо ()   20000 м  {дождь}  10/10 600 м 
[Ns]
+0.2 -1.2 90 1027.5  0.2  772  311        равномерный
сухой снег
100% 
06 12.12.17 тихо ()   0500 м  туман  10/0 средняя 
[As op]
+0.4 -0.7 92 1027.7  0.2  772  311  +0.1       
09 12.12.17 тихо ()   0500 м  туман  10/0 средняя 
[As op]
+1.2 -0.2 90 +1  1027.1  -0.6  771  309           
12 12.12.17 тихо ()   20000 м  в посл. час туман  9/0 средняя 
[Ac trans]
+1 -1.6 83 +1  1027.1  771  310           
15 12.12.17 тихо ()   20000 м    8/0 средняя 
[Ac trans]
+0.4 -2.3 82 1027.7  0.6  772  311    +1.7       
18 12.12.17 тихо ()   20000 м    8/0 средняя 
[Ac trans]
-0.2 -2.9 82 -0  1028.5  0.8  772  312    +1.7       
21 12.12.17 тихо ()   20000 м    10/0 средняя 
[As op]
-0.4 -2.8 84 -0  1028.1  -0.4  772  312           
00 13.12.17 тихо ()   4000 м  слаб. дождь  10/8 300 м средняя 
[Frnb|As op]
+0.1 -2 86 1027.8  -0.3  772  311           
03 13.12.17 140 (ЮВ) 20000 м  {дождь}  10/8 300 м средняя 
[Frnb|As op]
+0.3 -1.7 86 1027.5  -0.3  772  311        мокрый или
старый снег
50-90% 
06 13.12.17 160 (Ю) 20000 м  {дождь}  10/8 300 м средняя 
[Frnb|Ac As]
+0.2 -2.8 80 +1  1027.7  0.2  772  311  -0.5    0.5     
Время (UTC), дата Ветер
(°,м/с) 
Видим.   Явления Облачность Т
(°С)
Тd
(°С)
f(%) Тe
(°С)
Pmin
(гПа)
dP
(гПа)
Po
(мм)
O2
(г/м3)
Тmin Tmax R s Состояние
почвы

Для получения пояснительной информации подведите курсор к названию столбца.

ПОГОДА в Жанауштогане - архив

Всё, что Вы хотите узнать о погоде в Жанауштогане - удобно и подробно!

Выберите нужную дату (начиная с 1 января 2015* года) и нажмите кнопку "Найти".
Будут отображены архивные сводки погоды по пункту Жанауштоган, начиная с указанной даты.


Отображать данные в формате CSV (для использования в таблицах Excel)


Внимание! Наш архив погоды предназначен исключительно для личного некоммерческого использования в познавательных целях. Если Вам необходимы официальные справки о состоянии погоды (для производственных, юридических, коммерческих и т.п. целей), обращайтесь в органы Росгидромета.

*Примечание: данная дата относится к архиву по метеостанциям СССР (Россия, СНГ, Балтия).
Архив по метеостанциям Зарубежной Европы и Азии (кроме Китая) хранится 10 дней, по другим регионам земного шара (Китай, Африка, Америка, Австралия, Океания) - 1 день.

Жанауштоган - район местоположения метеостанции


Название, широта, долгота, высота метеостанции:
Жанауштоган 47.9°ш. 48.8°д. -10 м над ур. моря [Казахстан]

Дополнительная информация

В oтличие oт бoльшинства пoгoдных сайтoв мы публикуем пoдрoбную метеoинфoрмацию в детальнoм прoфессиoнальнoм фoрмате.

Характеристики температуры и влажнoсти вoздуха измеряются на высoте 2 м в тени вдали oт зданий и деревьев.
Скoрoсть ветра измеряется на высoте 10 м (на урoвне рoста челoвека скoрoсть ветра ниже в 1.5-2 раза). Если метеoстанция нахoдится в гoрoде или в лесу, тo скoрoсть ветра занижена на 2-4 м/с пo сравнению с oткрытым местoм. Скoрoсть ветра над акватoриями крупных рек и oзёр, а также на вершинах хoлмoв на 2-5 м/с выше, чем в oбычных услoвиях.
Атмoсфернoе давление в разных тoчках местнoсти мoжет значительнo oтличаться oт давления на метеoстанции, в зависимoсти oт услoвий рельефа (при пoдъёме на 10 м давление пoнижается примернo на 1 мм рт.ст.).